Regional Weather Roundup
Issued by NWS Boston, MA

Home | Current Version | Previous Version | Text Only | Print | Product List | Glossary On
Versions: 1 2 3 4 5 6 7 8 9 10 11 12 13 14 15 16 17 18 19 20 21 22 23 24 25 26 27 28 29 30 31 32 33 34 35 36 37 38 39 40 41 42 43 44 45 46 47 48 49 50
000
ASUS41 KBOX 211310
RWRBOX

REGIONAL WEATHER ROUNDUP
NATIONAL WEATHER SERVICE TAUNTON MA
800 AM EST TUE FEB 21 2017

NOTE:  "FAIR" INDICATES FEW OR NO CLOUDS BELOW 12,000 FEET WITH NO
SIGNIFICANT WEATHER AND/OR OBSTRUCTIONS TO VISIBILITY.

MAZALL-211400-
EASTERN MASSACHUSETTS

CITY           SKY/WX    TMP DP  RH WIND       PRES   REMARKS
BOSTON         MOSUNNY   33  17  51 NW7       30.41R WCI  27
BEVERLY        SUNNY     26  17  68 CALM      30.40R
LAWRENCE       SUNNY     26  19  74 CALM      30.41R
BEDFORD        MOSUNNY   23  15  71 CALM      30.39R
BLUE HILL        N/A     27  13  55 N8        30.35R WCI  19
NORWOOD        SUNNY     26  22  84 CALM      30.40S
MARSHFIELD     SUNNY     34  25  69 NW5       30.39R WCI  30
PLYMOUTH       SUNNY     31  20  63 NW6       30.39R WCI  25
TAUNTON        SUNNY     28  21  75 CALM      30.39R
NEW BEDFORD    SUNNY     33  17  51 VRB3      30.39R
$$

MAZALL-211400-
CAPE COD AND THE ISLANDS

CITY           SKY/WX    TMP DP  RH WIND       PRES   REMARKS
FALMOUTH       SUNNY     32  25  74 MISG      30.39R
HYANNIS        SUNNY     39  28  64 N7        30.36R
CHATHAM        SUNNY     39  28  64 CALM      30.37R
PROVINCETOWN   SUNNY     38  25  59 NE10      30.39R WCI  31
NANTUCKET      SUNNY     39  30  70 N9        30.37R
MARTHAS VNYRD  SUNNY     35  28  75 NW7       30.38R WCI  29
$$

MAZALL-211400-
CENTRAL AND WESTERN MASSACHUSETTS

CITY           SKY/WX    TMP DP  RH WIND       PRES   REMARKS
WORCESTER      CLOUDY    32   8  36 NE5       30.34S WCI  27
FITCHBURG      CLOUDY    26  17  68 NW3       30.40R
ORANGE         CLOUDY    17  17 100 CALM      30.36F
SPRINGFIELD    MOSUNNY   21  15  76 CALM      30.37F
WESTFIELD      CLOUDY    21  17  84 CALM      30.38F
NORTH ADAMS    CLOUDY    21  12  68 E7        30.34F WCI  12
PITTSFIELD     CLOUDY    19  13  77 CALM      30.31R
$$

RIZALL-211400-
RHODE ISLAND

CITY           SKY/WX    TMP DP  RH WIND       PRES   REMARKS
PROVIDENCE     MOSUNNY   33  14  45 N3        30.40R
NEWPORT        SUNNY     32  21  64 N5        30.38S WCI  27
BLOCK ISLAND   SUNNY     35  23  61 N7        30.39S WCI  29
SMITHFIELD     CLOUDY    30  16  56 N3        30.37S
WESTERLY       SUNNY     33  14  45 N3        30.39S
$$

CTZALL-211400-
CONNECTICUT

CITY           SKY/WX    TMP DP  RH WIND       PRES   REMARKS
BRADLEY INTL   CLOUDY    26  15  63 N3        30.39S
HARTFORD       CLOUDY    27  17  66 CALM      30.40F
BRIDGEPORT     MOSUNNY   34  15  46 NE6       30.39R WCI  29
DANBURY        MOSUNNY   25  18  74 SW3       30.39R
GROTON         CLOUDY    32  16  51 NE7       30.38F WCI  26
NEW HAVEN      MOSUNNY   31  15  52 N5        30.39S WCI  26
CHESTER        FAIR      30  14  51 NW3       30.37S
MERIDEN        CLOUDY    31  14  49 N3        30.39F
WILLIMANTIC    CLOUDY    24  18  77 CALM      30.39F
OXFORD         SUNNY     30  10  43 E6        30.35R WCI  24
$$

MEZ002-015-021-024-NHZ003-005-008-011-012-014-VTZ005-008-211400-
NORTHERN NEW ENGLAND

CITY           SKY/WX    TMP DP  RH WIND       PRES   REMARKS
PORTLAND ME    CLOUDY    25  14  63 W3        30.40R
BANGOR ME      CLOUDY    18  10  71 CALM      30.38S
CONCORD NH     CLOUDY    18  14  84 CALM      30.40R
MANCHESTER NH  CLOUDY    25  14  63 N3        30.38S
NASHUA NH      CLOUDY    22  16  78 NW5       30.40S WCI  16
PORTSMOUTH NH  MOSUNNY   25  14  63 NW3       30.38R
JAFFREY NH     CLOUDY    16  12  84 CALM      30.34F
KEENE NH       CLOUDY    16  14  92 CALM      30.37F
BURLINGTON VT  CLOUDY    22  15  75 CALM      30.30F
MT. WASHINGTON MOSUNNY   32  -4  21 E7          N/A  WCI  26
$$

NYZ052-076-211400-
EASTERN NEW YORK

CITY           SKY/WX    TMP DP  RH WIND       PRES   REMARKS
ALBANY         CLOUDY    25  17  72 CALM      30.37S
NEW YORK CITY  CLOUDY    37  19  48 NE7       30.39R WCI  32
$$

ANZALL-211400-
MARINE OBSERVATIONS

STATION/POSITION TIME  TEMP    WIND        PRES    VSBY  WAVE
                       AIR SEA DIR/SP/G                  HT/PER
                 (UTC) (F)     (DEG/KT/KT) (MB)    (MI)  (FT/S)
BOSTON BUOY      1250   36 42  340/ 10/ 12 1028.4R         3/ 6
BUZZARDS BAY     1200   33     360/ 11/ 12 1029.1R
NANTUCKET SOUND  1250   38 38  350/  8/ 10 1028.1R         1/ 6
MASS BAY-STELLWA 1204   38 40   20/  8/ 12 1027.4R         3/ 6
ISLE OF SHOALS   1300   32     340/  8/  9 1029.0R
S OF BLOCK IS    1255      42                N/A           2/ 4
$$

......................KEY.........................
  SKY/WX - SKY CONDITION/PRESENT WEATHER
  TMP    - TEMPERATURE IN FAHRENHEIT
  DWPT   - DEWPOINT IN FAHRENHEIT
  RH     - RELATIVE HUMIDITY IN PERCENT
  WIND   - DIRECTION AND SPEED IN MPH
  PRES   - MEAN SEA LEVEL PRESSURE IN INCHES OF HG
  WCI    - WIND CHILL INDEX
  VSB    - VISIBILITY IN MILES
  HX     - HEAT INDEX
  TC     - TEMPERATURE IN CELSIUS
  VRB    - VARIABLE WIND DIRECTION
  N/A    - NOT AVAILABLE



USA.gov is the U.S. government's official web portal to all federal, state and local government web resources and services.